Port Orchard, Washington, United States (98366)
Lat: 47.54N, Lon: 122.64W
Wx Zone: WAZ508
Local Info
Past Weather Observations for Friday, December 12, 2014

NOTE: This archive is for the closest National Weather Service station to Port Orchard. Information may differ from the station used for current weather conditions.

Click here for Long-term Archive

Time Weather Temperature Dewpoint Humidity Pressure Winds Precip Visibility
23:55
Overcast
43°F / 6°C 43°F / 6°C 100% 30.06 in
(1018 mb)
Calm - 9SM
23:35
Overcast
43°F / 6°C 41°F / 5°C 93% 30.06 in
(1018 mb)
Calm - 8SM
23:15
Overcast
43°F / 6°C 43°F / 6°C 100% 30.06 in
(1018 mb)
Calm - 6SM
22:55
Overcast
N/A N/A N/A 30.06 in
(1018 mb)
Calm - 8SM
22:35
Overcast
43°F / 6°C 43°F / 6°C 100% 30.06 in
(1018 mb)
Calm - 5SM
22:15
Overcast
43°F / 6°C 41°F / 5°C 93% 30.04 in
(1017 mb)
Calm - 3SM
21:55
Overcast
41°F / 5°C 39°F / 4°C 93% 30.04 in
(1017 mb)
Calm - 5SM
21:35
Overcast
39°F / 4°C 39°F / 4°C 100% 30.04 in
(1017 mb)
Calm - 2SM
21:15
Overcast
36°F / 2°C 36°F / 2°C 100% 30.01 in
(1016 mb)
Calm - 3/4SM
20:55
Clear
37°F / 3°C 36°F / 2°C 93% 30.01 in
(1016 mb)
Calm - 1 3/4SM
20:35
Partly Cloudy
37°F / 3°C 36°F / 2°C 93% 30.01 in
(1016 mb)
Calm - 10SM
20:15
Mostly Cloudy
39°F / 4°C 39°F / 4°C 100% 30.01 in
(1016 mb)
ESE 3.5 mph
(ESE 6 kph)
- 10SM
19:55
Partly Cloudy
37°F / 3°C 36°F / 2°C 93% 30.01 in
(1016 mb)
Calm - 7SM
19:35
Mostly Cloudy
39°F / 4°C 39°F / 4°C 100% 29.98 in
(1015 mb)
Calm - 10SM
19:15
Partly Cloudy
37°F / 3°C 37°F / 3°C 100% 29.98 in
(1015 mb)
Calm - 10SM
18:55
Clear
39°F / 4°C 37°F / 3°C 93% 29.98 in
(1015 mb)
Calm - 10SM
18:35
Partly Cloudy
41°F / 5°C 41°F / 5°C 100% 29.98 in
(1015 mb)
Calm - 10SM
18:15
Overcast
41°F / 5°C 41°F / 5°C 100% 29.95 in
(1014 mb)
SE 3.5 mph
(SE 6 kph)
- 10SM
17:55
Mostly Cloudy
39°F / 4°C 39°F / 4°C 100% 29.95 in
(1014 mb)
Calm - 10SM
17:35
Clear
39°F / 4°C 39°F / 4°C 100% 29.95 in
(1014 mb)
Calm - 10SM
17:15
Clear
43°F / 6°C 43°F / 6°C 100% 29.92 in
(1013 mb)
Calm - 10SM
16:55
Clear
45°F / 7°C 43°F / 6°C 93% 29.92 in
(1013 mb)
Calm - 10SM
16:35
Clear
45°F / 7°C 43°F / 6°C 93% 29.92 in
(1013 mb)
Calm - 10SM
16:15
Clear
46°F / 8°C 45°F / 7°C 93% 29.92 in
(1013 mb)
Calm - 10SM
15:55
Clear
48°F / 9°C 45°F / 7°C 87% 29.89 in
(1012 mb)
S 3.5 mph
(S 6 kph)
- 10SM
15:35
Clear
52°F / 11°C 45°F / 7°C 77% 29.89 in
(1012 mb)
S 5.8 mph
(S 9 kph)
- 10SM
15:15
Mostly Cloudy
52°F / 11°C 45°F / 7°C 77% 29.89 in
(1012 mb)
SSE 8.1 mph
(SSE 13 kph)
- 10SM
14:55
Overcast
54°F / 12°C 46°F / 8°C 77% 29.86 in
(1011 mb)
SSE 8.1 mph
(SSE 13 kph)
- 10SM
14:35
Overcast
52°F / 11°C 46°F / 8°C 82% 29.86 in
(1011 mb)
S 4.6 mph
(S 7 kph)
- 10SM
14:15
Mostly Cloudy
54°F / 12°C 46°F / 8°C 77% 29.86 in
(1011 mb)
Calm - 10SM
13:55
Overcast
52°F / 11°C 46°F / 8°C 82% 29.83 in
(1010 mb)
S 3.5 mph
(S 6 kph)
- 10SM
13:35
Mostly Cloudy
52°F / 11°C 46°F / 8°C 82% 29.83 in
(1010 mb)
SSE 6.9 mph
(SSE 11 kph)
- 10SM
13:15
Partly Cloudy
52°F / 11°C 46°F / 8°C 82% 29.83 in
(1010 mb)
S 6.9 mph
(S 11 kph)
- 10SM
12:55
Mostly Cloudy
52°F / 11°C 46°F / 8°C 82% 29.83 in
(1010 mb)
S 6.9 mph
(S 11 kph)
- 10SM
12:35
Partly Cloudy
52°F / 11°C 46°F / 8°C 82% 29.83 in
(1010 mb)
SW 3.5 mph
(SW 6 kph)
- 10SM
12:15
Clear
48°F / 9°C 46°F / 8°C 94% 29.83 in
(1010 mb)
SW 5.8 mph
(SW 9 kph)
- 10SM
11:55
Clear
48°F / 9°C 46°F / 8°C 94% 29.83 in
(1010 mb)
SSE 8.1 mph
(SSE 13 kph)
- 10SM
11:35
Partly Cloudy
50°F / 10°C 46°F / 8°C 88% 29.83 in
(1010 mb)
SSE 6.9 mph
(SSE 11 kph)
- 10SM
11:15
Mostly Cloudy
48°F / 9°C 46°F / 8°C 94% 29.83 in
(1010 mb)
SW 6.9 mph
(SW 11 kph)
- 10SM
10:55
Overcast
48°F / 9°C 46°F / 8°C 94% 29.83 in
(1010 mb)
S 6.9 mph
(S 11 kph)
- 10SM
10:35
Mostly Cloudy
48°F / 9°C 46°F / 8°C 94% 29.83 in
(1010 mb)
S 5.8 mph
(S 9 kph)
- 10SM
10:15
Mostly Cloudy
48°F / 9°C 46°F / 8°C 94% 29.83 in
(1010 mb)
S 4.6 mph
(S 7 kph)
- 10SM
09:55
Overcast
46°F / 8°C 46°F / 8°C 100% 29.83 in
(1010 mb)
SSE 4.6 mph
(SSE 7 kph)
- 10SM
09:35
Overcast
46°F / 8°C 46°F / 8°C 100% 29.8 in
(1009 mb)
Calm - 10SM
09:15
Overcast
46°F / 8°C 46°F / 8°C 100% 29.8 in
(1009 mb)
Calm - 10SM
08:55
Overcast
46°F / 8°C 46°F / 8°C 100% 29.8 in
(1009 mb)
Calm - 10SM
08:35
Overcast
46°F / 8°C 46°F / 8°C 100% 29.77 in
(1008 mb)
Calm - 10SM
08:15
Overcast
46°F / 8°C 46°F / 8°C 100% 29.77 in
(1008 mb)
Calm - 10SM
07:55
Overcast
46°F / 8°C 46°F / 8°C 100% 29.74 in
(1007 mb)
Calm - 10SM
07:35
Overcast
46°F / 8°C 46°F / 8°C 100% 29.74 in
(1007 mb)
SW 6.9 mph
(SW 11 kph)
- 10SM
07:15
Partly Cloudy
45°F / 7°C 45°F / 7°C 100% 29.74 in
(1007 mb)
SSE 8.1 mph
(SSE 13 kph)
- 10SM
06:55
Mostly Cloudy
46°F / 8°C 46°F / 8°C 100% 29.71 in
(1006 mb)
S 12.7 mph
(S 20 kph)
- 10SM
06:35
Mostly Cloudy
46°F / 8°C 46°F / 8°C 100% 29.71 in
(1006 mb)
S 8.1 mph
(S 13 kph)
- 10SM
06:15
Mostly Cloudy
46°F / 8°C 46°F / 8°C 100% 29.74 in
(1007 mb)
S 11.5 mph
(S 19 kph)
- 10SM
05:55
Mostly Cloudy
46°F / 8°C 46°F / 8°C 100% 29.71 in
(1006 mb)
SSE 9.2 mph
(SSE 15 kph)
- 10SM
05:35
Mostly Cloudy
46°F / 8°C 46°F / 8°C 100% 29.71 in
(1006 mb)
SSE 8.1 mph
(SSE 13 kph)
- 10SM
05:15
Mostly Cloudy
46°F / 8°C 46°F / 8°C 100% 29.68 in
(1005 mb)
S 10.4 mph
(S 17 kph)
- 10SM
04:55
Overcast
46°F / 8°C 46°F / 8°C 100% 29.68 in
(1005 mb)
S 10.4 mph
(S 17 kph)
- 10SM
04:35
Overcast
46°F / 8°C 46°F / 8°C 100% 29.68 in
(1005 mb)
S 9.2 mph
(S 15 kph)
- 10SM
04:15
Overcast
46°F / 8°C 46°F / 8°C 100% 29.68 in
(1005 mb)
S 9.2 mph
(S 15 kph)
- 10SM
03:55
Overcast
46°F / 8°C 46°F / 8°C 100% 29.65 in
(1004 mb)
S 10.4 mph
(S 17 kph)
- 10SM
03:35
Overcast
46°F / 8°C 46°F / 8°C 100% 29.65 in
(1004 mb)
S 8.1 mph
(S 13 kph)
- 10SM
03:15
Overcast
46°F / 8°C 46°F / 8°C 100% 29.65 in
(1004 mb)
S 13.8 mph
(S 22 kph)
- 10SM
02:55
Mostly Cloudy
46°F / 8°C 46°F / 8°C 100% 29.62 in
(1003 mb)
S 12.7 mph
(S 20 kph)
- 10SM
02:35
Partly Cloudy
46°F / 8°C 46°F / 8°C 100% 29.62 in
(1003 mb)
S 13.8 mph
(S 22 kph)
- 10SM
02:15
Partly Cloudy
46°F / 8°C 46°F / 8°C 100% 29.62 in
(1003 mb)
S 18.4 mph
(S 30 kph)
- 10SM
01:55
Partly Cloudy
46°F / 8°C 46°F / 8°C 100% 29.59 in
(1002 mb)
S 17.3 mph
(S 28 kph)
- 10SM
01:35
Overcast
46°F / 8°C 45°F / 7°C 93% 29.59 in
(1002 mb)
S 19.6 mph
(S 32 kph)
- 10SM
01:15
Overcast
46°F / 8°C 45°F / 7°C 93% 29.59 in
(1002 mb)
S 18.4 mph
(S 30 kph)
- 10SM
00:55
Overcast
48°F / 9°C 46°F / 8°C 94% 29.59 in
(1002 mb)
S 13.8 mph
(S 22 kph)
- 10SM
00:35
Overcast
46°F / 8°C 45°F / 7°C 93% 29.56 in
(1001 mb)
S 12.7 mph
(S 20 kph)
- 10SM
00:15
Mostly Cloudy
48°F / 9°C 46°F / 8°C 94% 29.56 in
(1001 mb)
S 15 mph
(S 24 kph)
- 10SM
Time Weather Temperature Dewpoint Humidity Pressure Winds Precip Visibility


Weather for websites

WeatherForYou.com, LLC is not responsible for any damages or problems caused by this service. Current weather conditions are obtained from the closest station including government and personal stations which may have varying degrees of accuracy. Weather forecasts are derived from the NOAA NDFD. Like all things, this site belongs to Jesus Christ... He just trusts me to maintain it. If you have any questions or comments email webmaster@weatherforyou.com

Copyright © 2014, WeatherForYou.com LLC. All rights reserved.